Terug naar catalogus

NOAA 16 DEB

ActiefSSO
NORAD 41232·DEBRIS·🇺🇸 United States

Gelanceerd Sep 21, 2000 vanaf Vandenberg Space Force Base

Loading…

Volgende Passages (komende 24 uur)

TLE

VersSource: Space-Track

Epoch: Sep 14, 2026, 11:03 UTC

1 41232U 00055EM  26257.46067661  .00003070  00000-0  13114-2 0  9992
2 41232  98.8754 334.6687 0035167 356.9981   3.0982 14.25421392552653

Volg NOAA 16 DEB in realtime met AllMySat

Download on the App Store